Tracking 19717 objects as of 24-Jun-2019
HD Live streaming from Space Station
objects crossing your sky now

ARIANE 5 DEB (SYLDA)

Track ARIANE 5 DEB (SYLDA) now!


NORAD ID: 27952
Int'l Code: 2003-043F
Perigee: 624.4 km
Apogee: 35,709.5 km
Inclination: 6.8 °
Period: 637.6 minutes
Semi major axis: 24537 km
RCS: 17.0078 m2 (large)
Launch date: September 27, 2003
Source: France (FR)
Launch site: FRENCH GUIANA (FRGUI)

Note: This is SATELLITE DEBRIS
aabbcc
Your satellite tracking list
Your tracking list is empty




NASA's NSSDC Master Catalog

Two Line Element Set (TLE):
1 27952U 03043F   19175.31577323 -.00000127  00000-0  24235-3 0  9999
2 27952   6.7781 179.9757 7149145  83.4423  51.1576  2.25863413129838
Source of the keplerian elements: AFSPC